Lawton, OK

3:46 AM CDT on August 19, 2017 (GMT -0500)
Lawton-Fort Sill Regional

Weather History for KLAW - January, 2014

Change the Weather History Date:

Thursday, January 30, 2014

  Actual Average Record
Temperature  
Mean Temperature 46 °F -  
Max Temperature 64 °F 54 °F 79 °F (2016)
Min Temperature 28 °F 28 °F 3 °F (1966)
Degree Days  
Heating Degree Days 19    
Moisture  
Dew Point 21 °F    
Average Humidity 43    
Maximum Humidity 76    
Minimum Humidity 20    
Precipitation  
Precipitation 0.00 in - - ()
Sea Level Pressure  
Sea Level Pressure 29.80 in    
Wind  
Wind Speed 12 mph (SSE)    
Max Wind Speed 22 mph    
Max Gust Speed 28 mph    
Visibility 10 miles    
Events      
Averages and records for this station are not official NWS values.
T = Trace of Precipitation, MM = Missing Value Source: NWS Daily Summary

Daily Weather History Graph

Daily Weather History Graph

Search for Another Location

Airport or City:

Trip Planner

Search our weather history database for the weather conditions in past years. The results will help you decide how hot, cold, wet, or windy it might be!

Date:

Astronomy

Jan. 30, 2014 Rise Set
Actual Time 7:33 AM CST 6:01 PM CST
Civil Twilight 7:06 AM CST 6:27 PM CST
Nautical Twilight 6:36 AM CST 6:58 PM CST
Astronomical Twilight 6:06 AM CST 7:27 PM CST
Moon 7:01 AM CST (1/30) 6:12 PM CST (1/30)
Length of Visible Light 11h 21m
Length of Day
10h 28m
Waning Crescent, 0% of the Moon is Illuminated
Jan 30
Waning Crescent
Jan 30
New
Feb 6
First Quarter
Feb 14
Full
Feb 22
Last Quarter

Hourly Weather History & Observations

Time (CST) Temp. Windchill Dew Point Humidity Pressure Visibility Wind Dir Wind Speed Gust Speed Precip Events Conditions
12:53 AM 28.9 °F 18.6 °F 12.9 °F 51% 29.99 in 10.0 mi SSE 12.7 mph - N/A   Clear
1:53 AM 30.0 °F 21.7 °F 12.9 °F 49% 29.97 in 10.0 mi SSE 9.2 mph - N/A   Clear
2:53 AM 30.9 °F 22.2 °F 14.0 °F 50% 29.94 in 10.0 mi South 10.4 mph - N/A   Clear
3:53 AM 30.9 °F 21.2 °F 14.0 °F 50% 29.90 in 10.0 mi SSE 12.7 mph - N/A   Clear
4:53 AM 32.0 °F 22.5 °F 15.1 °F 50% 29.86 in 10.0 mi SSE 12.7 mph - N/A   Clear
5:53 AM 30.9 °F 22.2 °F 16.0 °F 54% 29.85 in 10.0 mi SSE 10.4 mph - N/A   Clear
6:53 AM 30.0 °F 21.1 °F 15.1 °F 54% 29.84 in 10.0 mi SSE 10.4 mph - N/A   Clear
7:53 AM 30.0 °F 20.0 °F 15.1 °F 54% 29.83 in 10.0 mi SSE 12.7 mph - N/A   Clear
8:53 AM 34.0 °F 23.4 °F 15.1 °F 46% 29.82 in 10.0 mi SSE 17.3 mph 21.9 mph N/A   Clear
9:53 AM 39.0 °F 29.9 °F 17.1 °F 41% 29.81 in 10.0 mi South 17.3 mph 21.9 mph N/A   Clear
10:53 AM 46.9 °F - 18.0 °F 32% 29.80 in 10.0 mi South 21.9 mph 27.6 mph N/A   Clear
11:53 AM 52.0 °F - 19.0 °F 27% 29.79 in 10.0 mi SSW 18.4 mph 27.6 mph N/A   Clear
12:53 PM 57.0 °F - 19.9 °F 24% 29.75 in 10.0 mi South 13.8 mph 23.0 mph N/A   Clear
1:53 PM 62.1 °F - 19.9 °F 20% 29.74 in 10.0 mi WSW 15.0 mph - N/A   Clear
2:53 PM 62.1 °F - 21.0 °F 21% 29.73 in 10.0 mi SW 9.2 mph 16.1 mph N/A   Clear
3:53 PM 64.0 °F - 21.9 °F 20% 29.71 in 10.0 mi South 9.2 mph - N/A   Clear
4:53 PM 64.0 °F - 21.9 °F 20% 29.72 in 10.0 mi Calm Calm - N/A   Clear
5:53 PM 55.0 °F - 24.1 °F 30% 29.74 in 10.0 mi ENE 9.2 mph - N/A   Clear
6:53 PM 51.1 °F - 26.1 °F 38% 29.75 in 10.0 mi East 6.9 mph - N/A   Clear
7:53 PM 51.1 °F - 30.0 °F 44% 29.75 in 10.0 mi East 9.2 mph - N/A   Clear
8:53 PM 48.9 °F - 32.0 °F 52% 29.76 in 10.0 mi East 6.9 mph - N/A   Clear
9:53 PM 46.9 °F - 35.1 °F 63% 29.75 in 10.0 mi ESE 8.1 mph - N/A   Clear
10:53 PM 46.0 °F 42.5 °F 36.0 °F 68% 29.75 in 10.0 mi ESE 6.9 mph - N/A   Clear
11:53 PM 43.0 °F 39.5 °F 36.0 °F 76% 29.74 in 10.0 mi East 5.8 mph - N/A   Clear